| time (UTC) | temp C | wind direction | speed KPH | gust KPH | rain 1hr cm | rain 24hr cm | rain mn cm | humidity % | barometer mb |
| 20260505223945 | 10 | 1 | 11.3 | 20.9 | 0.00 | 0.48 | 0.00 | 92 | 1008.1 |
| 20260505221945 | 10 | 13 | 9.7 | 19.3 | 0.00 | 0.51 | 0.00 | 93 | 1008.2 |
| 20260505220945 | 10 | 356 | 8.0 | 16.1 | 0.00 | 0.51 | 0.00 | 93 | 1008.3 |
| 20260505215950 | 10 | 4 | 8.0 | 12.9 | 0.00 | 0.51 | 0.00 | 93 | 1008.3 |
| 20260505214945 | 10 | 18 | 9.7 | 16.1 | 0.00 | 0.51 | 0.51 | 93 | 1008.3 |
| 20260505213944 | 10 | 21 | 11.3 | 19.3 | 0.00 | 0.51 | 0.51 | 92 | 1008.4 |
| 20260505212945 | 10 | 19 | 9.7 | 20.9 | 0.00 | 0.51 | 0.51 | 93 | 1008.5 |
| 20260505211945 | 10 | 17 | 6.4 | 14.5 | 0.00 | 0.51 | 0.51 | 93 | 1008.5 |
| 20260505205945 | 10 | 21 | 8.0 | 12.9 | 0.00 | 0.51 | 0.51 | 93 | 1008.6 |
| 20260505204944 | 10 | 27 | 8.0 | 12.9 | 0.00 | 0.51 | 0.51 | 93 | 1008.6 |
| 20260505203945 | 10 | 21 | 8.0 | 12.9 | 0.00 | 0.51 | 0.51 | 93 | 1008.6 |
| 20260505202945 | 10 | 18 | 8.0 | 16.1 | 0.00 | 0.51 | 0.51 | 93 | 1008.6 |
| 20260505201944 | 11 | 18 | 9.7 | 17.7 | 0.00 | 0.53 | 0.51 | 92 | 1008.6 |
| 20260505200945 | 11 | 25 | 11.3 | 17.7 | 0.00 | 0.56 | 0.51 | 91 | 1008.5 |
| 20260505195946 | 11 | 35 | 11.3 | 19.3 | 0.00 | 0.61 | 0.51 | 91 | 1008.4 |
| 20260505194944 | 11 | 30 | 6.4 | 16.1 | 0.00 | 0.74 | 0.51 | 92 | 1008.4 |
| 20260505193946 | 11 | 31 | 8.0 | 14.5 | 0.00 | 0.79 | 0.51 | 92 | 1008.2 |
| 20260505192946 | 11 | 37 | 8.0 | 12.9 | 0.00 | 0.79 | 0.51 | 92 | 1008.1 |
| 20260505191945 | 11 | 29 | 4.8 | 9.7 | 0.00 | 0.79 | 0.51 | 92 | 1008.1 |
| 20260505190945 | 11 | 28 | 4.8 | 8.0 | 0.00 | 0.79 | 0.51 | 92 | 1008.1 |
| 20260505185945 | 11 | 25 | 4.8 | 9.7 | 0.00 | 0.79 | 0.51 | 92 | 1008.1 |
| 20260505184945 | 11 | 34 | 6.4 | 11.3 | 0.00 | 0.79 | 0.51 | 92 | 1008.1 |
| 20260505182945 | 11 | 30 | 6.4 | 14.5 | 0.00 | 0.79 | 0.51 | 92 | 1008.1 |
| 20260505180945 | 11 | 22 | 8.0 | 12.9 | 0.00 | 0.79 | 0.51 | 92 | 1008.0 |
| 20260505175947 | 11 | 12 | 6.4 | 11.3 | 0.00 | 0.79 | 0.51 | 93 | 1008.0 |
| 20260505174945 | 11 | 15 | 6.4 | 11.3 | 0.00 | 0.79 | 0.51 | 93 | 1008.0 |
| 20260505172945 | 11 | 19 | 6.4 | 11.3 | 0.00 | 0.79 | 0.51 | 93 | 1008.1 |
| 20260505171947 | 11 | 24 | 6.4 | 11.3 | 0.00 | 0.79 | 0.51 | 93 | 1008.1 |
| 20260505170945 | 11 | 28 | 8.0 | 14.5 | 0.00 | 0.79 | 0.51 | 93 | 1008.2 |
| 20260505165946 | 11 | 29 | 8.0 | 16.1 | 0.00 | 0.79 | 0.51 | 92 | 1008.3 |
| 20260505164945 | 11 | 34 | 9.7 | 14.5 | 0.00 | 0.79 | 0.51 | 93 | 1008.3 |
| 20260505163947 | 11 | 32 | 9.7 | 14.5 | 0.00 | 0.79 | 0.51 | 93 | 1008.4 |
| 20260505162945 | 11 | 32 | 8.0 | 12.9 | 0.00 | 0.79 | 0.51 | 93 | 1008.3 |
| 20260505161946 | 11 | 28 | 9.7 | 16.1 | 0.00 | 0.79 | 0.51 | 93 | 1008.3 |
| 20260505151947 | 11 | 16 | 8.0 | 14.5 | 0.00 | 0.79 | 0.51 | 93 | 1008.7 |
| 20260505150948 | 11 | 19 | 9.7 | 16.1 | 0.00 | 0.79 | 0.51 | 92 | 1008.6 |
| 20260505124946 | 10 | 24 | 8.0 | 14.5 | 0.00 | 0.79 | 0.51 | 97 | 1009.5 |
| 20260505123945 | 10 | 22 | 8.0 | 14.5 | 0.00 | 0.79 | 0.51 | 98 | 1009.6 |
| 20260505121946 | 10 | 18 | 8.0 | 14.5 | 0.00 | 0.79 | 0.51 | 98 | 1009.6 |
| 20260505120945 | 10 | 21 | 8.0 | 16.1 | 0.00 | 0.79 | 0.51 | 98 | 1009.7 |
| 20260505115948 | 10 | 9 | 8.0 | 14.5 | 0.00 | 0.79 | 0.51 | 98 | 1009.8 |
| 20260505114946 | 10 | 35 | 9.7 | 14.5 | 0.00 | 0.79 | 0.51 | 98 | 1009.8 |
| 20260505113946 | 10 | 24 | 8.0 | 16.1 | 0.00 | 0.79 | 0.51 | 98 | 1009.8 |
| 20260505111946 | 10 | 26 | 9.7 | 17.7 | 0.00 | 0.79 | 0.51 | 98 | 1009.9 |
| 20260505110947 | 10 | 20 | 6.4 | 12.9 | 0.00 | 0.79 | 0.51 | 98 | 1009.9 |
| 20260505100947 | 9 | 36 | 11.3 | 19.3 | 0.03 | 0.79 | 0.51 | 98 | 1010.2 |
| 20260505095946 | 9 | 48 | 11.3 | 20.9 | 0.03 | 0.79 | 0.51 | 99 | 1010.2 |
| 20260505094946 | 9 | 34 | 9.7 | 16.1 | 0.03 | 0.79 | 0.51 | 98 | 1010.2 |
| 20260505092946 | 9 | 32 | 9.7 | 19.3 | 0.05 | 0.79 | 0.51 | 98 | 1010.2 |
| 20260505090946 | 9 | 31 | 9.7 | 14.5 | 0.03 | 0.79 | 0.48 | 99 | 1010.2 |
| 20260505085947 | 9 | 27 | 8.0 | 17.7 | 0.03 | 0.79 | 0.48 | 98 | 1010.2 |
| 20260505084947 | 9 | 31 | 9.7 | 14.5 | 0.03 | 0.79 | 0.48 | 98 | 1010.2 |
| 20260505083947 | 9 | 29 | 11.3 | 20.9 | 0.00 | 0.76 | 0.46 | 98 | 1010.2 |
| 20260505081946 | 9 | 32 | 8.0 | 12.9 | 0.03 | 0.76 | 0.46 | 98 | 1010.1 |
| 20260505080946 | 9 | 39 | 11.3 | 19.3 | 0.03 | 0.76 | 0.46 | 98 | 1010.1 |
| 20260505075947 | 9 | 35 | 11.3 | 17.7 | 0.03 | 0.76 | 0.46 | 98 | 1010.2 |
| 20260505074946 | 9 | 32 | 9.7 | 16.1 | 0.03 | 0.76 | 0.46 | 98 | 1010.2 |
| 20260505073947 | 9 | 29 | 9.7 | 19.3 | 0.03 | 0.76 | 0.46 | 99 | 1010.2 |
| 20260505071946 | 9 | 26 | 11.3 | 25.7 | 0.00 | 0.74 | 0.43 | 99 | 1010.2 |
| 20260505070947 | 9 | 30 | 11.3 | 20.9 | 0.00 | 0.74 | 0.43 | 99 | 1010.2 |
| 20260505065947 | 9 | 21 | 11.3 | 20.9 | 0.00 | 0.74 | 0.43 | 99 | 1010.1 |
| 20260505064947 | 9 | 11 | 11.3 | 20.9 | 0.00 | 0.74 | 0.43 | 99 | 1010.1 |
| 20260505063947 | 10 | 20 | 11.3 | 17.7 | 0.00 | 0.74 | 0.43 | 99 | 1010.2 |
| 20260505062947 | 10 | 21 | 11.3 | 20.9 | 0.00 | 0.74 | 0.43 | 99 | 1010.2 |
| 20260505061947 | 10 | 19 | 8.0 | 19.3 | 0.03 | 0.74 | 0.43 | 99 | 1010.2 |
| 20260505060947 | 10 | 35 | 9.7 | 14.5 | 0.03 | 0.74 | 0.43 | 99 | 1010.2 |
| 20260505055947 | 10 | 35 | 12.9 | 20.9 | 0.05 | 0.74 | 0.43 | 99 | 1010.1 |
| 20260505054947 | 10 | 34 | 9.7 | 19.3 | 0.05 | 0.74 | 0.43 | 99 | 1010.1 |
| 20260505053946 | 10 | 28 | 9.7 | 17.7 | 0.05 | 0.74 | 0.43 | 99 | 1010.1 |
| 20260505052947 | 10 | 20 | 9.7 | 16.1 | 0.08 | 0.74 | 0.43 | 99 | 1010.0 |
| 20260505051947 | 10 | 21 | 9.7 | 17.7 | 0.08 | 0.71 | 0.43 | 99 | 1010.0 |
| 20260505050948 | 10 | 4 | 8.0 | 14.5 | 0.08 | 0.71 | 0.41 | 99 | 1009.9 |
| 20260505040947 | 10 | 28 | 11.3 | 20.9 | 0.05 | 0.61 | 0.33 | 99 | 1009.7 |
| 20260505035948 | 10 | 25 | 9.7 | 19.3 | 0.05 | 0.61 | 0.30 | 99 | 1009.8 |
| 20260505034949 | 11 | 18 | 9.7 | 16.1 | 0.05 | 0.61 | 0.30 | 99 | 1009.8 |
| 20260505033948 | 11 | 19 | 9.7 | 16.1 | 0.03 | 0.58 | 0.28 | 99 | 1009.8 |
| 20260505032948 | 11 | 16 | 9.7 | 14.5 | 0.00 | 0.56 | 0.25 | 99 | 1009.8 |
| 20260505031948 | 11 | 16 | 9.7 | 17.7 | 0.00 | 0.56 | 0.25 | 99 | 1009.8 |
| 20260505024948 | 11 | 10 | 9.7 | 19.3 | 0.00 | 0.56 | 0.25 | 99 | 1010.0 |
| 20260505023948 | 11 | 12 | 12.9 | 19.3 | 0.00 | 0.56 | 0.25 | 99 | 1010.1 |
| 20260505022948 | 11 | 16 | 11.3 | 17.7 | 0.00 | 0.56 | 0.25 | 99 | 1010.1 |
| 20260505021948 | 11 | 11 | 9.7 | 19.3 | 0.00 | 0.56 | 0.25 | 99 | 1010.1 |
| 20260505020947 | 11 | 1 | 14.5 | 20.9 | 0.00 | 0.56 | 0.25 | 99 | 1010.0 |
| 20260505014948 | 12 | 356 | 12.9 | 20.9 | 0.05 | 0.56 | 0.25 | 99 | 1009.9 |
| 20260505013947 | 12 | 356 | 14.5 | 24.1 | 0.05 | 0.56 | 0.25 | 99 | 1010.0 |
| 20260505012948 | 12 | 348 | 16.1 | 22.5 | 0.05 | 0.56 | 0.25 | 99 | 1010.1 |
| 20260505011947 | 12 | 3 | 11.3 | 20.9 | 0.05 | 0.56 | 0.25 | 99 | 1010.1 |
| 20260505010948 | 13 | 5 | 11.3 | 17.7 | 0.08 | 0.56 | 0.25 | 99 | 1010.2 |
| 20260505004949 | 13 | 13 | 6.4 | 11.3 | 0.05 | 0.51 | 0.23 | 99 | 1010.2 |
| 20260505003947 | 13 | 4 | 4.8 | 8.0 | 0.05 | 0.51 | 0.23 | 99 | 1010.2 |
| 20260505002948 | 13 | 334 | 6.4 | 9.7 | 0.08 | 0.51 | 0.23 | 99 | 1010.3 |
| 20260505001948 | 13 | 326 | 8.0 | 11.3 | 0.10 | 0.51 | 0.20 | 99 | 1010.3 |
| 20260505000947 | 13 | 336 | 9.7 | 14.5 | 0.13 | 0.48 | 0.18 | 99 | 1010.3 |
| 20260504235949 | 13 | 304 | 8.0 | 12.9 | 0.13 | 0.46 | 0.15 | 99 | 1010.4 |
| 20260504234948 | 13 | 299 | 3.2 | 8.0 | 0.15 | 0.46 | 0.15 | 99 | 1010.4 |
| 20260504233948 | 13 | 257 | 1.6 | 4.8 | 0.15 | 0.46 | 0.15 | 99 | 1010.5 |
| 20260504232949 | 13 | 250 | 1.6 | 4.8 | 0.13 | 0.43 | 0.13 | 98 | 1010.7 |
| 20260504231948 | 13 | 239 | 1.6 | 6.4 | 0.10 | 0.41 | 0.10 | 99 | 1010.7 |
| 20260504230948 | 13 | 246 | 1.6 | 4.8 | 0.05 | 0.36 | 0.05 | 98 | 1010.8 |
| 20260504225948 | 13 | 247 | 1.6 | 6.4 | 0.05 | 0.33 | 0.05 | 98 | 1010.9 |
| 20260504224948 | 13 | 244 | 0.0 | 3.2 | 0.03 | 0.33 | 0.03 | 98 | 1010.9 |